GOKTURK 2

Last updated on Thu Oct 16 2025 00:02:30 GMT+0000 (Coordinated Universal Time)

1 39030U 12073A 25288.58865365 .00000856 00000+0 13372-3 0 9996 2 39030 97.6961 133.0869 0002011 76.7350 283.4084 14.75171832688445
UTC large
Height (km)
Speed (km/s)
/
Latitude / Longitude
Inclination (degrees)
Orbital Period (minutes)
Azimuth
Elevation
Range (km)
Doppler Factor

Next 0 passes for location: London (51.5072 / 0.1276)

Sorry there are no passes over London.